Location: Lane
(33.5226°N, 79.8788°W)
Time: 19:57:16
(UTC+00:00)

Explorer 11/Cluster Stage 4 - Pass Details

Date: 08 October 2022
Orbit: 466 x 1247 km, 28.8° (Epoch: 01 December)

Event Time Altitude Azimuth Distance (km) Brightness Sun altitude
Rises 14:24:27 0° 241° (WSW) 3,945 10.0 34.8°
Reaches altitude 10° 14:27:14 10° 236° (SW) 3,065 9.5 35.3°
Maximum altitude 14:34:43 49° 164° (SSE) 1,552 9.4 36.5°
Drops below altitude 10° 14:42:30 10° 93° (E) 3,194 10.5 37.7°
Sets 14:45:28 0° 88° (E) 4,122 10.8 38.2°
